Location: Kalwaria Zebrzydowska
(49.8686°N, 19.6647°E)
Time: 04:52:22
(UTC+01:00)

ISS - Visible Passes

Search period start: 24 November 2017 00:00
Search period end: 04 December 2017 00:00
Orbit: 402 x 407 km, 51.6° (Epoch: 24 November)

Date Brightness Start Highest point End Pass type
(mag) Time Alt. Az. Time Alt. Az. Time Alt. Az.
27 Nov -1.2 17:35:07 10° SSE 17:35:10 10° SSE 17:35:10 10° SSE visible
28 Nov -1.5 18:16:44 10° SSW 18:17:50 18° SSW 18:17:50 18° SSW visible
29 Nov -2.2 17:24:57 10° SSW 17:27:30 21° SE 17:27:45 21° SE visible
29 Nov -0.3 19:00:21 10° WSW 19:00:25 10° WSW 19:00:25 10° WSW visible
30 Nov -1.5 16:33:43 10° SSE 16:35:20 13° SE 16:36:58 10° ESE visible
30 Nov -2.5 18:08:02 10° SW 18:10:15 37° SW 18:10:15 37° SW visible
01 Dec -3.0 17:15:53 10° SW 17:18:58 38° SSE 17:20:01 28° ESE visible
01 Dec -0.6 18:52:03 10° W 18:52:40 15° W 18:52:40 15° W visible
02 Dec -2.2 16:23:58 10° SSW 16:26:42 24° SE 16:29:26 10° E visible
02 Dec -3.4 17:59:37 10° WSW 18:02:23 61° WSW 18:02:23 61° WSW visible
03 Dec -3.7 17:07:14 10° WSW 17:10:29 65° SSE 17:12:04 27° E visible
03 Dec -0.9 18:43:46 10° W 18:44:42 18° W 18:44:42 18° W visible
